Precipitable_Water
0.51 0.50 0.52 0.54 0.53 0.49 0.47 0.48 0.48 0.47 0.43 0.48 0.45 0.41 0.38 0.35 0.35 0.42 0.39 0.40 0.34 0.27 0.27 0.25 0.25 0.21 0.24 0.23 0.21 0.25 0.22 0.30 0.23 0.21 0.24 0.23 0.22 0.24 0.27 0.29 0.21 0.21 0.23 0.23 0.26 0.25 0.22 0.39 0.33 0.28 0.37 0.44 0.41 0.39
0.52 0.53 0.54 0.54 0.51 0.47 0.46 0.47 0.49 0.48 0.43 0.47 0.50 0.43 0.38 0.34 0.37 0.44 0.38 0.41 0.39 0.28 0.30 0.33 0.31 0.31 0.29 0.28 0.24 0.24 0.23 0.25 0.29 0.26 0.25 0.27 0.24 0.30 0.29 0.23 0.34 0.27 0.33 0.30 0.30 0.29 0.40 0.41 0.36 0.41 0.42 0.39 0.38 0.39
0.50 0.53 0.56 0.54 0.50 0.43 0.41 0.42 0.44 0.42 0.41 0.45 0.46 0.40 0.38 0.39 0.42 0.44 0.45 0.41 0.36 0.29 0.28 0.28 0.28 0.36 0.37 0.34 0.32 0.21 0.28 0.35 0.33 0.35 0.32 0.29 0.25 0.31 0.24 0.27 0.30 0.36 0.40 0.33 0.33 0.35 0.35 0.37 0.39 0.40 0.42 0.39 0.40 0.43
0.48 0.50 0.52 0.52 0.47 0.43 0.42 0.42 0.40 0.39 0.41 0.43 0.41 0.39 0.41 0.40 0.42 0.44 0.42 0.46 0.37 0.33 0.23 0.32 0.39 0.31 0.36 0.36 0.35 0.31 0.29 0.36 0.33 0.29 0.29 0.27 0.26 0.35 0.28 0.32 0.31 0.33 0.35 0.32 0.31 0.34 0.36 0.37 0.40 0.41 0.43 0.43 0.43 0.45
0.45 0.46 0.49 0.51 0.48 0.45 0.42 0.39 0.39 0.38 0.40 0.41 0.42 0.40 0.39 0.38 0.39 0.42 0.44 0.48 0.48 0.34 0.29 0.31 0.39 0.35 0.37 0.37 0.35 0.34 0.30 0.27 0.27 0.25 0.25 0.24 0.30 0.35 0.33 0.35 0.29 0.35 0.30 0.27 0.25 0.34 0.34 0.34 0.42 0.44 0.43 0.44 0.46 0.44
0.43 0.46 0.50 0.51 0.49 0.45 0.41 0.37 0.37 0.38 0.40 0.42 0.43 0.41 0.39 0.34 0.36 0.42 0.31 0.44 0.49 0.46 0.32 0.25 0.39 0.37 0.37 0.37 0.37 0.35 0.34 0.30 0.27 0.25 0.24 0.29 0.36 0.36 0.25 0.26 0.35 0.37 0.38 0.37 0.33 0.38 0.38 0.40 0.44 0.46 0.44 0.45 0.46 0.45
0.41 0.42 0.43 0.47 0.50 0.43 0.40 0.39 0.39 0.41 0.42 0.43 0.42 0.40 0.37 0.34 0.37 0.36 0.34 0.47 0.53 0.50 0.33 0.27 0.27 0.35 0.37 0.36 0.37 0.39 0.39 0.33 0.27 0.27 0.24 0.28 0.30 0.35 0.28 0.26 0.34 0.37 0.37 0.39 0.41 0.39 0.36 0.41 0.40 0.45 0.44 0.45 0.44 0.43
0.38 0.40 0.42 0.51 0.50 0.42 0.41 0.40 0.40 0.42 0.43 0.44 0.42 0.39 0.36 0.35 0.40 0.39 0.49 0.56 0.56 0.44 0.39 0.26 0.25 0.30 0.39 0.29 0.29 0.42 0.34 0.31 0.28 0.26 0.28 0.30 0.32 0.32 0.26 0.32 0.34 0.37 0.39 0.39 0.39 0.42 0.43 0.44 0.43 0.42 0.42 0.41 0.39 0.39
0.38 0.38 0.44 0.50 0.49 0.45 0.43 0.40 0.39 0.42 0.44 0.42 0.38 0.34 0.34 0.35 0.34 0.39 0.53 0.55 0.55 0.43 0.30 0.28 0.23 0.23 0.39 0.29 0.34 0.35 0.34 0.24 0.31 0.28 0.29 0.30 0.28 0.24 0.27 0.27 0.30 0.37 0.38 0.39 0.42 0.43 0.42 0.40 0.39 0.39 0.38 0.38 0.36 0.35
0.36 0.39 0.47 0.49 0.48 0.43 0.42 0.40 0.40 0.43 0.41 0.38 0.32 0.29 0.25 0.36 0.53 0.52 0.45 0.37 0.37 0.39 0.37 0.28 0.31 0.26 0.32 0.26 0.28 0.28 0.30 0.25 0.24 0.27 0.32 0.26 0.25 0.30 0.29 0.30 0.34 0.38 0.39 0.42 0.38 0.37 0.39 0.37 0.36 0.35 0.34 0.35 0.34 0.33
0.38 0.40 0.45 0.46 0.45 0.42 0.39 0.38 0.41 0.43 0.42 0.31 0.27 0.31 0.46 0.55 0.45 0.39 0.31 0.29 0.30 0.27 0.30 0.28 0.28 0.26 0.32 0.23 0.25 0.29 0.28 0.28 0.23 0.28 0.26 0.23 0.21 0.26 0.31 0.33 0.36 0.37 0.39 0.39 0.39 0.39 0.38 0.36 0.33 0.32 0.32 0.32 0.31 0.31
0.40 0.42 0.45 0.44 0.42 0.40 0.37 0.39 0.42 0.39 0.33 0.33 0.42 0.48 0.47 0.39 0.34 0.28 0.25 0.27 0.27 0.21 0.26 0.25 0.26 0.27 0.33 0.34 0.31 0.32 0.25 0.27 0.20 0.34 0.26 0.21 0.26 0.30 0.34 0.34 0.36 0.37 0.36 0.36 0.35 0.34 0.33 0.33 0.32 0.31 0.30 0.30 0.30 0.30
0.42 0.43 0.43 0.41 0.38 0.38 0.38 0.40 0.41 0.41 0.41 0.45 0.40 0.34 0.33 0.31 0.23 0.20 0.18 0.19 0.19 0.22 0.26 0.25 0.24 0.28 0.34 0.34 0.32 0.31 0.23 0.21 0.38 0.28 0.26 0.27 0.30 0.32 0.33 0.33 0.33 0.33 0.33 0.32 0.31 0.31 0.31 0.31 0.31 0.30 0.29 0.30 0.30 0.30
0.42 0.42 0.41 0.38 0.40 0.42 0.42 0.42 0.40 0.41 0.43 0.34 0.30 0.23 0.25 0.22 0.22 0.23 0.23 0.24 0.30 0.30 0.27 0.28 0.24 0.25 0.29 0.27 0.27 0.22 0.29 0.31 0.25 0.22 0.24 0.28 0.30 0.32 0.33 0.32 0.30 0.30 0.30 0.30 0.30 0.30 0.29 0.29 0.29 0.29 0.29 0.29 0.29 0.28
0.40 0.39 0.40 0.39 0.43 0.44 0.44 0.41 0.40 0.46 0.40 0.33 0.32 0.23 0.23 0.30 0.31 0.30 0.31 0.31 0.31 0.34 0.35 0.32 0.31 0.31 0.29 0.27 0.29 0.28 0.26 0.23 0.26 0.25 0.28 0.31 0.32 0.31 0.31 0.30 0.30 0.29 0.28 0.28 0.28 0.28 0.28 0.29 0.28 0.29 0.29 0.27 0.25 0.22
0.37 0.39 0.40 0.42 0.44 0.43 0.41 0.40 0.43 0.44 0.40 0.35 0.31 0.27 0.29 0.26 0.25 0.23 0.25 0.25 0.33 0.35 0.38 0.36 0.31 0.27 0.28 0.29 0.27 0.25 0.24 0.23 0.26 0.28 0.29 0.30 0.29 0.30 0.29 0.29 0.28 0.29 0.28 0.28 0.28 0.29 0.28 0.27 0.24 0.22 0.21 0.20 0.20 0.19
0.36 0.36 0.44 0.43 0.41 0.39 0.40 0.40 0.42 0.36 0.34 0.31 0.27 0.31 0.27 0.25 0.23 0.24 0.27 0.30 0.38 0.37 0.30 0.32 0.27 0.27 0.34 0.27 0.24 0.28 0.24 0.26 0.27 0.27 0.28 0.29 0.29 0.29 0.29 0.29 0.30 0.30 0.30 0.29 0.27 0.25 0.23 0.22 0.21 0.21 0.20 0.19 0.19 0.18
0.35 0.41 0.42 0.40 0.40 0.41 0.40 0.44 0.39 0.34 0.28 0.30 0.27 0.28 0.25 0.27 0.27 0.28 0.31 0.36 0.37 0.37 0.37 0.33 0.36 0.28 0.25 0.24 0.27 0.28 0.26 0.30 0.32 0.32 0.31 0.31 0.30 0.30 0.31 0.30 0.31 0.29 0.26 0.24 0.23 0.22 0.21 0.21 0.21 0.20 0.19 0.17 0.15 0.15
0.43 0.40 0.38 0.38 0.41 0.43 0.37 0.38 0.38 0.28 0.29 0.30 0.30 0.28 0.26 0.28 0.33 0.34 0.34 0.37 0.39 0.41 0.39 0.35 0.29 0.27 0.29 0.31 0.29 0.29 0.28 0.28 0.28 0.30 0.31 0.31 0.31 0.31 0.30 0.27 0.25 0.24 0.24 0.23 0.22 0.23 0.22 0.21 0.20 0.18 0.17 0.16 0.15 0.17
0.45 0.37 0.40 0.45 0.51 0.41 0.33 0.34 0.38 0.31 0.26 0.28 0.29 0.26 0.30 0.31 0.33 0.34 0.35 0.35 0.35 0.34 0.32 0.29 0.29 0.31 0.29 0.31 0.33 0.30 0.31 0.32 0.29 0.27 0.27 0.29 0.27 0.25 0.24 0.24 0.24 0.24 0.23 0.23 0.23 0.21 0.20 0.18 0.17 0.16 0.15 0.14 0.14 0.15
0.41 0.42 0.47 0.50 0.45 0.40 0.34 0.32 0.29 0.30 0.29 0.27 0.27 0.29 0.28 0.31 0.30 0.31 0.31 0.35 0.31 0.30 0.28 0.30 0.31 0.32 0.33 0.34 0.34 0.32 0.32 0.31 0.30 0.29 0.28 0.24 0.24 0.24 0.24 0.25 0.24 0.23 0.23 0.22 0.21 0.19 0.16 0.17 0.17 0.15 0.14 0.14 0.13 0.13
0.41 0.47 0.45 0.47 0.38 0.36 0.32 0.34 0.31 0.32 0.29 0.26 0.26 0.28 0.27 0.25 0.26 0.28 0.33 0.29 0.29 0.29 0.30 0.30 0.31 0.30 0.30 0.30 0.31 0.32 0.33 0.35 0.35 0.31 0.28 0.24 0.22 0.23 0.23 0.23 0.23 0.22 0.23 0.22 0.20 0.19 0.18 0.17 0.15 0.14 0.13 0.15 0.13 0.12
0.48 0.48 0.42 0.39 0.33 0.31 0.29 0.35 0.27 0.28 0.23 0.24 0.26 0.25 0.25 0.25 0.28 0.31 0.24 0.27 0.28 0.31 0.31 0.32 0.31 0.31 0.31 0.32 0.32 0.32 0.34 0.33 0.31 0.29 0.25 0.25 0.25 0.25 0.24 0.24 0.24 0.22 0.20 0.19 0.18 0.17 0.17 0.15 0.13 0.12 0.13 0.12 0.13 0.12
0.51 0.40 0.35 0.32 0.31 0.27 0.31 0.26 0.26 0.25 0.27 0.26 0.25 0.23 0.24 0.25 0.28 0.24 0.22 0.24 0.27 0.29 0.29 0.29 0.29 0.28 0.29 0.30 0.30 0.31 0.34 0.34 0.31 0.29 0.27 0.24 0.23 0.23 0.22 0.21 0.21 0.20 0.19 0.19 0.17 0.15 0.15 0.14 0.13 0.12 0.13 0.12 0.11 0.11
0.32 0.29 0.31 0.25 0.29 0.26 0.24 0.24 0.25 0.25 0.23 0.25 0.24 0.23 0.24 0.26 0.22 0.21 0.20 0.23 0.25 0.26 0.28 0.29 0.29 0.30 0.29 0.30 0.32 0.34 0.35 0.32 0.28 0.25 0.25 0.25 0.22 0.20 0.19 0.18 0.18 0.17 0.17 0.17 0.16 0.15 0.15 0.14 0.13 0.12 0.11 0.11 0.10 0.10
0.25 0.27 0.25 0.24 0.25 0.23 0.23 0.21 0.22 0.23 0.24 0.23 0.24 0.26 0.26 0.23 0.20 0.19 0.22 0.25 0.25 0.28 0.29 0.31 0.31 0.31 0.32 0.32 0.31 0.30 0.31 0.32 0.28 0.25 0.24 0.22 0.20 0.19 0.17 0.15 0.16 0.17 0.18 0.17 0.15 0.13 0.13 0.13 0.11 0.10 0.09 0.10 0.10 0.09
0.24 0.24 0.26 0.30 0.29 0.26 0.25 0.26 0.28 0.25 0.23 0.22 0.23 0.23 0.22 0.19 0.19 0.22 0.26 0.30 0.29 0.31 0.33 0.35 0.35 0.33 0.32 0.32 0.33 0.32 0.31 0.30 0.28 0.25 0.22 0.20 0.19 0.19 0.18 0.17 0.17 0.18 0.18 0.15 0.13 0.11 0.11 0.11 0.10 0.09 0.09 0.09 0.09 0.10
0.27 0.27 0.22 0.25 0.25 0.28 0.25 0.25 0.24 0.24 0.24 0.27 0.26 0.21 0.20 0.20 0.21 0.26 0.28 0.31 0.33 0.34 0.35 0.36 0.37 0.36 0.34 0.33 0.32 0.29 0.28 0.28 0.27 0.23 0.19 0.17 0.16 0.15 0.15 0.16 0.17 0.16 0.14 0.12 0.12 0.11 0.10 0.10 0.09 0.09 0.09 0.09 0.09 0.09
0.26 0.28 0.27 0.24 0.26 0.26 0.26 0.25 0.25 0.27 0.28 0.27 0.24 0.23 0.23 0.25 0.27 0.28 0.28 0.31 0.33 0.32 0.31 0.31 0.32 0.34 0.32 0.31 0.30 0.28 0.27 0.25 0.20 0.15 0.13 0.11 0.11 0.12 0.15 0.16 0.15 0.14 0.14 0.12 0.10 0.10 0.09 0.09 0.08 0.08 0.08 0.08 0.09 0.10
0.26 0.30 0.26 0.25 0.23 0.23 0.25 0.28 0.27 0.29 0.28 0.29 0.28 0.26 0.25 0.26 0.27 0.29 0.29 0.29 0.29 0.29 0.30 0.31 0.31 0.30 0.28 0.27 0.25 0.26 0.27 0.25 0.20 0.16 0.13 0.12 0.12 0.13 0.15 0.15 0.14 0.12 0.12 0.12 0.11 0.10 0.10 0.10 0.10 0.10 0.10 0.09 0.09 0.09
0.29 0.28 0.26 0.25 0.23 0.25 0.27 0.28 0.29 0.28 0.28 0.27 0.27 0.25 0.23 0.24 0.26 0.28 0.29 0.31 0.31 0.29 0.27 0.26 0.28 0.29 0.28 0.26 0.24 0.22 0.20 0.19 0.17 0.16 0.15 0.13 0.12 0.14 0.15 0.14 0.13 0.12 0.11 0.10 0.10 0.10 0.09 0.09 0.09 0.09 0.08 0.08 0.08 0.08
0.26 0.25 0.23 0.22 0.22 0.26 0.27 0.26 0.26 0.25 0.25 0.23 0.22 0.23 0.23 0.22 0.21 0.24 0.27 0.28 0.28 0.27 0.26 0.27 0.27 0.27 0.29 0.28 0.27 0.25 0.22 0.17 0.15 0.13 0.12 0.12 0.12 0.13 0.13 0.12 0.11 0.11 0.10 0.10 0.10 0.09 0.08 0.08 0.08 0.08 0.08 0.07 0.07 0.07
0.23 0.24 0.24 0.22 0.22 0.22 0.23 0.23 0.22 0.22 0.22 0.21 0.21 0.22 0.22 0.22 0.19 0.23 0.27 0.28 0.29 0.28 0.27 0.27 0.28 0.28 0.27 0.26 0.24 0.21 0.18 0.16 0.14 0.12 0.12 0.12 0.13 0.13 0.12 0.12 0.11 0.10 0.10 0.10 0.09 0.09 0.08 0.08 0.07 0.07 0.07 0.08 0.08 0.07
Wind_Speed
27 26 26 25 25 23 21 19 19 19 20 19 17 16 14 13 11 9 7 7 5 6 6 6 6 7 7 9 10 13 11 9 8 5 4 4 5 4 4 3 11 10 8 7 8 6 4 8 4 6 6 5 5 7
27 27 27 26 25 23 22 21 21 20 21 19 18 16 15 13 12 10 8 7 7 6 7 8 9 9 10 10 11 11 9 8 4 4 3 3 4 2 7 2 1 4 3 0 1 2 0 3 2 0 3 4 5 5
29 28 27 27 24 22 21 21 21 22 21 20 18 17 15 13 13 11 8 8 7 7 8 9 9 8 9 9 9 9 7 4 3 4 4 3 3 3 4 3 3 3 2 3 5 3 1 3 2 2 3 4 5 5
30 30 29 27 25 23 21 21 21 21 21 19 18 17 15 14 13 13 10 9 9 8 8 7 9 11 9 9 9 9 10 9 8 7 6 5 5 4 4 6 2 3 4 6 3 1 2 3 4 2 2 3 3 3
29 30 30 28 26 24 22 22 22 23 21 19 18 17 15 14 14 13 12 11 11 9 8 10 12 11 11 10 10 9 8 8 9 8 7 7 6 5 6 3 4 5 4 4 6 6 3 2 3 3 3 3 2 2
29 29 29 28 28 25 22 22 23 23 22 20 18 16 15 14 13 11 10 13 14 11 10 10 10 12 13 14 13 12 10 8 8 10 8 7 7 5 5 3 3 5 4 4 4 4 3 2 2 2 2 2 1 1
30 30 28 29 29 25 22 23 23 22 21 20 18 16 15 14 14 11 9 8 10 11 10 11 10 9 11 12 13 13 12 9 9 11 9 10 7 5 5 4 3 4 4 5 5 5 5 2 3 1 2 1 1 1
29 30 29 29 31 26 23 23 22 21 20 19 17 15 15 14 14 13 13 10 8 8 10 10 11 12 12 11 11 11 11 10 10 11 10 9 6 5 3 2 3 4 3 3 4 4 4 4 3 3 1 1 2 2
29 31 29 31 30 27 25 23 23 21 20 18 16 15 14 14 13 13 12 13 13 12 11 11 11 10 8 9 7 7 9 9 9 11 10 8 7 6 3 3 3 3 2 4 5 5 5 3 2 1 2 3 3 3
30 32 32 30 29 27 25 24 23 22 19 18 16 14 12 13 12 10 10 10 11 12 13 13 12 9 6 3 3 4 7 7 6 8 8 8 7 6 5 5 4 2 2 3 5 4 2 2 2 3 4 5 5 6
30 33 32 30 29 27 25 25 24 22 20 17 15 12 12 14 11 10 9 9 9 10 11 10 10 7 5 6 6 6 5 5 4 6 7 7 6 5 4 3 2 2 2 2 3 2 3 4 5 5 6 7 7 8
31 33 33 30 28 27 27 27 25 22 19 19 14 13 13 11 10 9 8 8 8 8 6 6 9 10 7 7 5 4 5 5 4 4 4 4 4 4 4 3 2 2 2 1 1 2 3 4 4 6 7 8 9 10
31 32 31 29 26 26 28 27 26 22 21 18 15 15 12 11 9 9 8 7 6 5 6 9 10 10 8 6 5 4 4 4 3 3 3 2 5 5 5 4 3 2 1 1 2 3 4 5 7 8 9 10 10 10
31 32 31 28 27 27 27 26 24 24 20 15 15 15 12 9 9 8 7 6 6 7 10 10 11 9 8 6 4 3 3 3 3 3 3 4 5 5 4 3 2 1 1 2 3 5 6 7 8 9 9 10 11 11
31 30 30 29 28 28 27 25 26 24 17 13 14 12 12 9 7 5 7 9 9 9 11 10 8 8 7 5 4 2 3 3 1 1 3 5 4 4 3 2 2 2 3 4 5 6 6 6 7 8 9 10 11 12
30 29 29 30 28 27 26 25 25 23 16 12 10 9 8 8 9 9 11 11 11 10 11 9 7 7 6 4 4 3 3 1 2 2 3 3 3 3 3 3 4 4 3 3 3 5 6 7 8 9 11 12 13 15
31 26 30 29 27 27 27 25 22 18 15 12 10 9 6 7 9 11 13 12 12 12 10 9 8 5 4 4 4 2 2 2 3 3 3 3 3 3 2 2 1 1 1 2 3 5 7 8 10 12 14 16 17 19
26 28 30 29 29 27 25 24 17 15 14 12 10 7 8 9 10 12 13 13 13 11 9 7 5 5 5 4 3 3 2 2 2 3 3 3 3 3 2 2 1 0 1 3 5 7 10 12 14 16 18 19 21 23
25 29 31 31 29 22 22 20 15 13 11 10 8 8 10 10 12 12 13 13 12 10 8 6 5 5 4 3 3 3 4 4 4 4 2 2 2 3 3 2 0 2 4 6 9 12 14 16 18 20 22 23 25 26
26 31 32 30 25 19 17 15 16 11 9 9 9 11 10 11 13 13 13 13 12 10 9 7 5 4 3 3 3 4 5 5 4 3 3 3 3 3 2 1 3 5 8 10 13 15 17 19 21 23 25 27 28 28
28 30 30 26 18 16 14 13 12 9 10 9 11 11 10 13 13 13 12 12 11 10 8 7 6 6 5 4 4 6 5 4 4 4 4 4 4 2 3 5 7 9 12 14 16 18 20 22 24 26 28 28 28 28
25 30 25 20 15 13 11 10 11 10 9 10 13 11 11 12 13 13 11 12 10 10 9 8 8 7 7 7 7 6 5 4 4 4 4 4 3 4 6 8 10 13 15 17 19 20 22 24 26 28 29 29 29 29
27 25 21 16 13 11 9 11 10 11 10 12 12 12 11 11 11 12 11 10 10 10 10 9 9 9 8 7 7 6 6 5 4 4 4 4 5 7 9 11 13 15 18 19 21 22 24 26 28 29 30 30 30 30
22 19 16 14 12 10 10 12 12 11 11 11 12 12 11 11 11 11 10 10 9 9 10 10 10 10 9 9 7 7 6 5 5 5 5 6 7 9 11 13 16 18 20 21 22 24 26 27 29 30 31 31 31 30
16 14 13 12 12 10 12 13 12 11 10 11 11 11 11 11 11 11 10 9 10 11 11 12 12 11 10 9 8 7 7 7 6 6 7 8 9 11 13 16 18 20 22 23 24 26 27 28 30 31 32 32 31 30
13 11 12 12 13 12 12 11 12 11 10 11 11 10 11 11 11 10 8 9 10 11 13 13 12 11 10 10 9 9 8 7 7 7 8 10 12 14 16 18 20 22 24 25 26 28 29 30 32 32 32 31 30 29
14 12 12 12 11 12 11 11 11 10 11 12 11 12 12 11 11 8 9 8 9 12 13 13 12 12 11 10 9 8 7 7 8 8 10 12 14 16 18 20 22 23 25 26 28 29 30 31 32 32 32 31 30 29
12 13 12 13 13 12 12 12 12 12 12 11 12 13 12 10 9 9 8 8 9 11 12 12 12 11 11 10 9 9 8 8 8 9 11 13 15 17 19 22 23 25 26 27 28 30 31 31 32 32 32 31 31 29
13 13 13 13 13 13 13 13 13 12 12 13 12 12 12 12 11 10 11 11 10 10 11 12 11 11 10 10 10 10 10 10 11 12 14 15 17 19 21 23 25 26 27 28 29 30 31 32 32 32 32 31 30 29
15 16 15 15 15 15 13 13 13 14 14 14 14 14 14 13 13 13 13 13 13 13 13 14 13 13 12 11 10 10 10 12 13 15 16 16 18 19 22 24 26 26 27 28 29 31 32 33 33 32 31 31 30 29
16 17 17 16 16 15 15 15 15 15 15 16 16 16 15 15 15 15 13 13 13 13 13 14 14 14 13 12 12 12 12 13 14 15 16 17 18 21 23 25 26 26 27 29 30 31 32 33 33 32 31 30 30 30
17 18 17 17 16 16 16 17 16 17 17 17 17 17 18 18 16 16 17 15 15 15 14 14 14 13 12 12 12 12 12 13 14 15 16 18 20 22 23 24 25 26 28 29 31 31 32 32 32 31 31 31 31 30
16 17 16 16 16 16 16 16 17 16 16 16 17 19 19 18 17 16 17 17 16 16 15 14 14 13 13 12 12 12 12 13 14 15 17 18 20 22 23 24 25 27 29 30 31 32 32 32 32 31 31 31 30 30
Wind_Direction
208 207 206 203 203 207 209 211 209 204 201 202 204 207 212 216 220 228 239 239 252 250 270 273 283 288 305 310 319 318 315 322 306 270 280 334 325 329 321 131 170 182 203 221 216 237 122 6 74 166 219 229 266 279
208 206 206 205 206 209 212 213 208 206 203 207 206 210 215 218 219 224 236 239 247 254 260 285 282 286 294 306 317 322 309 308 298 265 270 299 305 311 22 147 148 188 226 65 116 163 355 20 73 180 243 256 288 285
206 205 203 201 205 208 210 207 206 207 204 204 207 211 211 214 217 220 239 237 248 266 276 265 276 271 284 294 303 316 323 307 266 238 255 268 272 316 357 35 1 281 351 216 205 34 64 14 1 314 290 274 285 292
205 205 204 204 204 205 205 204 204 201 201 205 207 207 211 216 220 223 236 245 252 265 269 278 279 272 282 288 288 298 298 277 257 254 250 248 251 293 296 320 4 327 283 267 202 213 201 19 359 326 308 283 292 276
205 206 205 205 205 205 206 207 205 203 204 205 206 210 215 221 225 231 240 244 248 259 278 280 282 267 267 281 282 287 294 280 247 240 239 256 251 281 289 292 333 324 306 267 244 279 242 295 315 321 347 336 287 233
203 201 201 203 203 204 208 208 203 202 203 204 207 212 217 221 221 230 244 244 243 253 270 279 287 272 269 275 272 272 272 274 243 230 235 235 252 265 276 265 340 329 304 287 248 234 220 242 294 281 350 323 304 258
203 202 203 204 202 202 202 198 197 199 200 204 208 212 217 218 219 226 237 246 238 239 265 277 285 285 279 277 273 266 254 258 242 227 226 236 251 253 263 254 297 333 317 246 241 248 223 264 224 266 280 287 296 269
203 202 202 200 196 196 196 195 195 197 199 202 206 213 216 217 223 231 232 232 228 257 268 275 282 288 282 279 271 252 244 241 231 217 222 227 239 233 239 243 289 304 295 244 233 213 164 176 191 194 222 255 316 308
200 198 196 193 193 194 195 194 195 196 197 201 207 210 212 218 224 228 231 235 246 257 268 271 285 294 286 282 267 234 223 221 208 206 212 219 221 226 249 250 284 304 293 171 155 159 166 185 205 281 307 309 303 305
196 193 190 189 191 193 194 195 195 194 196 198 198 206 216 216 206 211 234 241 246 253 261 273 271 273 267 238 187 161 169 179 189 202 200 212 220 234 252 254 270 249 175 175 193 175 198 221 262 303 310 306 302 295
192 191 191 192 192 194 196 194 192 192 192 197 198 208 207 188 207 221 228 235 243 263 267 258 240 218 186 165 168 159 157 171 184 179 199 211 225 221 222 214 227 189 161 165 179 233 282 287 282 288 300 304 302 298
188 188 188 190 193 197 196 192 191 192 193 190 194 188 183 202 212 218 226 243 253 262 238 211 184 177 165 160 161 169 170 164 180 166 201 209 191 183 183 171 159 167 175 195 249 284 291 295 292 296 301 301 298 294
182 182 182 184 185 184 182 183 185 187 182 185 190 190 197 201 211 223 222 239 233 213 180 163 162 161 165 162 160 158 166 184 164 187 187 166 154 157 158 154 142 136 148 208 285 295 304 303 302 301 300 301 298 295
176 177 178 178 176 175 176 177 177 176 177 185 186 190 202 199 217 221 235 199 172 155 160 159 162 163 164 166 168 172 200 207 206 207 162 169 167 161 156 175 191 231 281 297 301 300 300 301 304 307 306 303 301 300
169 171 173 173 172 172 173 174 175 175 177 183 188 196 204 207 214 213 188 171 163 159 156 153 164 167 171 177 182 238 208 205 194 137 168 164 171 181 187 200 225 259 285 294 297 301 306 310 312 313 313 311 309 306
165 165 169 169 170 171 172 170 174 176 182 183 188 193 203 216 207 195 182 174 170 167 164 167 166 170 188 193 197 216 227 235 198 199 187 196 201 202 220 242 259 273 288 305 316 319 320 322 323 320 316 314 312 309
164 165 167 167 168 168 167 167 168 180 186 188 190 200 213 196 183 178 178 175 173 170 175 176 184 187 174 206 221 228 238 229 204 212 212 197 196 201 199 188 203 257 317 334 337 336 334 329 323 319 317 313 311 310
163 164 165 165 162 161 166 171 175 180 183 191 200 203 198 188 181 177 177 177 175 179 180 188 200 200 213 223 199 197 194 175 167 161 150 145 156 173 178 171 166 38 6 344 337 333 329 325 323 321 319 315 312 310
160 163 163 162 161 162 166 174 180 179 184 192 201 198 187 184 183 179 179 184 187 192 198 204 218 221 209 217 215 213 205 192 169 164 170 167 173 165 154 147 159 326 326 324 322 322 323 323 323 322 320 315 314 312
157 159 160 162 164 164 168 174 180 180 185 195 195 188 184 183 180 182 186 190 192 196 201 211 212 214 229 234 234 201 180 173 182 189 191 186 168 166 179 261 306 315 318 319 320 318 319 319 320 321 320 318 316 315
150 157 158 161 166 173 174 178 186 196 200 198 187 186 185 182 185 188 191 194 200 205 208 218 220 228 238 231 202 185 187 204 209 209 200 188 197 225 269 301 307 310 313 315 315 317 317 319 320 320 319 319 318 315
155 159 160 166 168 173 180 191 191 191 196 190 187 191 185 188 191 195 198 204 210 213 224 231 227 231 218 202 197 199 206 209 208 198 190 197 239 270 294 303 308 312 315 315 316 317 318 319 320 320 320 320 318 315
157 163 168 173 178 185 191 193 195 192 186 184 187 186 188 190 192 195 207 213 219 225 228 225 222 208 196 198 203 208 210 210 215 206 211 248 276 293 303 308 313 315 316 316 318 319 320 320 321 321 320 319 318 317
162 169 179 182 188 189 195 192 185 181 182 187 185 190 192 194 197 208 220 218 223 224 222 218 207 203 205 206 211 214 221 222 216 226 248 274 291 301 306 312 316 319 320 320 319 320 320 321 321 321 321 320 319 318
170 177 187 187 187 179 178 177 183 183 185 191 194 199 199 203 211 222 230 227 227 229 222 210 206 209 211 214 216 224 224 227 233 250 271 284 295 304 310 315 319 320 320 319 319 320 321 321 322 322 322 321 320 319
181 183 185 182 184 186 184 186 191 194 196 200 201 199 206 213 221 227 230 234 231 217 207 207 208 211 214 219 223 225 232 236 244 266 284 291 298 304 309 313 316 319 321 321 321 321 322 322 323 323 323 322 321 320
188 190 193 193 192 192 196 202 197 203 206 206 205 210 212 218 222 228 232 237 220 209 210 213 216 218 220 220 221 226 238 253 262 276 291 300 308 313 315 316 320 320 321 322 322 323 323 324 324 324 324 323 322 321
197 197 197 196 200 206 204 207 211 213 212 212 211 213 218 226 227 231 231 222 218 212 211 215 220 216 216 221 227 234 243 256 273 286 297 305 310 313 317 320 320 322 322 323 324 325 325 326 326 325 325 324 323 322
205 204 204 207 210 215 219 220 220 222 224 223 223 221 225 231 233 231 225 220 218 215 214 213 215 217 222 227 232 241 250 264 276 284 293 301 306 312 317 321 322 322 323 324 326 326 327 327 327 327 326 325 324 322
216 218 220 221 222 225 226 229 229 225 228 229 228 230 232 233 234 230 227 225 227 227 225 222 223 224 225 230 238 251 266 279 287 291 295 302 308 311 316 320 321 323 324 325 326 327 328 328 327 327 327 327 326 325
224 225 226 225 226 230 229 228 229 230 232 233 236 238 233 230 227 228 229 229 227 222 224 223 224 227 233 239 245 256 270 281 289 297 302 306 309 314 318 320 322 324 325 327 328 329 329 329 329 329 329 329 328 327
226 226 225 227 229 230 229 230 231 234 236 237 237 233 227 225 226 227 228 231 230 230 228 225 227 232 236 244 256 268 273 280 289 296 303 308 311 316 319 321 323 325 326 328 329 330 330 331 331 331 330 330 329 329
224 224 224 224 225 226 229 231 232 233 236 236 227 222 221 224 226 231 227 230 235 227 227 227 229 235 241 250 259 269 278 285 292 299 306 311 315 318 320 322 324 326 328 329 330 331 332 332 332 332 332 332 332 332